Time,TemperatureF,DewpointF,PressureIn,WindDirection,WindDirectionDegrees,WindSpeedMPH,WindSpeedGustMPH,Humidity,HourlyPrecipIn,Conditions,Clouds,dailyrainin,SoftwareType,DateUTC
2013-05-14 00:03:00,69.0,56.0,30.13,NW,323,0.0,0.0,63,0.00,,,0.00,,2013-05-14 04:03:00,
2013-05-14 00:13:00,69.0,56.0,30.13,NW,323,0.0,0.0,63,0.00,,,0.00,,2013-05-14 04:13:00,
2013-05-14 00:23:00,68.0,55.0,30.12,NW,323,0.0,0.0,64,0.00,,,0.00,,2013-05-14 04:23:00,
2013-05-14 00:32:00,68.0,56.0,30.12,NW,323,0.0,0.0,65,0.00,,,0.00,,2013-05-14 04:32:00,
2013-05-14 00:43:00,68.0,56.0,30.12,NW,323,0.0,0.0,65,0.00,,,0.00,,2013-05-14 04:43:00,
2013-05-14 00:53:00,68.0,55.0,30.12,NW,323,0.0,0.0,64,0.00,,,0.00,,2013-05-14 04:53:00,
2013-05-14 01:02:00,68.0,55.0,30.11,NW,323,0.0,0.0,64,0.00,,,0.00,,2013-05-14 05:02:00,
2013-05-14 01:12:00,68.0,55.0,30.11,NW,323,0.0,0.0,64,0.00,,,0.00,,2013-05-14 05:12:00,
2013-05-14 01:22:00,68.0,55.0,30.11,NW,323,0.0,0.0,64,0.00,,,0.00,,2013-05-14 05:22:00,
2013-05-14 01:32:00,69.0,55.0,30.11,North,0,0.0,6.0,62,0.00,,,0.00,,2013-05-14 05:32:00,
2013-05-14 01:42:00,69.0,55.0,30.11,North,0,0.0,6.0,62,0.00,,,0.00,,2013-05-14 05:42:00,
2013-05-14 01:52:00,69.0,51.0,30.11,NE,44,0.0,7.0,52,0.00,,,0.00,,2013-05-14 05:52:00,
2013-05-14 02:01:00,69.0,49.0,30.11,NNE,32,0.0,9.0,49,0.00,,,0.00,,2013-05-14 06:01:00,
2013-05-14 02:12:00,69.0,49.0,30.11,NNE,32,0.0,9.0,49,0.00,,,0.00,,2013-05-14 06:12:00,
2013-05-14 02:22:00,69.0,48.0,30.11,NNE,25,0.0,7.0,48,0.00,,,0.00,,2013-05-14 06:22:00,
2013-05-14 02:32:00,69.0,48.0,30.12,NNE,31,2.0,9.0,48,0.00,,,0.00,,2013-05-14 06:32:00,
2013-05-14 02:42:00,69.0,48.0,30.12,NNE,31,2.0,9.0,48,0.00,,,0.00,,2013-05-14 06:42:00,
2013-05-14 02:52:00,69.0,47.0,30.12,NNE,31,2.0,9.0,46,0.00,,,0.00,,2013-05-14 06:52:00,
2013-05-14 03:02:00,69.0,47.0,30.12,North,354,1.0,10.0,46,0.00,,,0.00,,2013-05-14 07:02:00,
2013-05-14 03:11:00,69.0,47.0,30.12,North,354,1.0,10.0,46,0.00,,,0.00,,2013-05-14 07:11:00,
2013-05-14 03:21:00,68.0,48.0,30.13,North,8,0.0,9.0,48,0.00,,,0.00,,2013-05-14 07:21:00,
2013-05-14 03:32:00,68.0,48.0,30.13,NNE,14,0.0,7.0,49,0.00,,,0.00,,2013-05-14 07:32:00,
2013-05-14 03:42:00,68.0,48.0,30.13,North,8,1.0,9.0,48,0.00,,,0.00,,2013-05-14 07:42:00,
2013-05-14 03:52:00,68.0,48.0,30.13,North,8,1.0,9.0,48,0.00,,,0.00,,2013-05-14 07:52:00,
2013-05-14 04:02:00,68.0,48.0,30.13,NE,39,2.0,6.0,48,0.00,,,0.00,,2013-05-14 08:02:00,
2013-05-14 04:11:00,68.0,48.0,30.13,NE,39,2.0,6.0,48,0.00,,,0.00,,2013-05-14 08:11:00,
2013-05-14 04:21:00,67.0,48.0,30.13,NNE,30,0.0,6.0,50,0.00,,,0.00,,2013-05-14 08:21:00,
2013-05-14 04:32:00,67.0,48.0,30.13,North,0,1.0,7.0,50,0.00,,,0.00,,2013-05-14 08:32:00,
2013-05-14 04:42:00,67.0,48.0,30.13,North,8,0.0,6.0,51,0.00,,,0.00,,2013-05-14 08:42:00,
2013-05-14 04:52:00,67.0,48.0,30.13,North,8,0.0,6.0,51,0.00,,,0.00,,2013-05-14 08:52:00,
2013-05-14 05:02:00,66.0,48.0,30.14,North,8,0.0,0.0,53,0.00,,,0.00,,2013-05-14 09:02:00,
2013-05-14 05:11:00,66.0,48.0,30.14,North,8,0.0,0.0,53,0.00,,,0.00,,2013-05-14 09:11:00,
2013-05-14 05:22:00,65.0,48.0,30.14,North,8,0.0,0.0,55,0.00,,,0.00,,2013-05-14 09:22:00,
2013-05-14 05:32:00,64.0,47.0,30.14,North,8,0.0,0.0,55,0.00,,,0.00,,2013-05-14 09:32:00,
2013-05-14 05:44:00,64.0,47.0,30.14,North,8,0.0,0.0,55,0.00,,,0.00,,2013-05-14 09:44:00,
2013-05-14 05:54:00,64.0,48.0,30.14,North,8,0.0,0.0,57,0.00,,,0.00,,2013-05-14 09:54:00,
2013-05-14 06:05:00,64.0,49.0,30.14,North,8,0.0,0.0,58,0.00,,,0.00,,2013-05-14 10:05:00,
2013-05-14 06:14:00,64.0,49.0,30.14,North,8,0.0,0.0,58,0.00,,,0.00,,2013-05-14 10:14:00,
2013-05-14 06:25:00,63.0,48.0,30.14,North,8,0.0,0.0,59,0.00,,,0.00,,2013-05-14 10:25:00,
2013-05-14 06:33:00,63.0,48.0,30.14,North,8,0.0,0.0,58,0.00,,,0.00,,2013-05-14 10:33:00,
2013-05-14 06:42:00,63.0,48.0,30.14,North,8,0.0,0.0,58,0.00,,,0.00,,2013-05-14 10:42:00,
2013-05-14 06:53:00,63.0,48.0,30.15,North,8,0.0,0.0,58,0.00,,,0.00,,2013-05-14 10:53:00,
2013-05-14 07:03:00,63.0,48.0,30.16,North,8,0.0,0.0,59,0.00,,,0.00,,2013-05-14 11:03:00,
2013-05-14 07:11:00,63.0,48.0,30.16,North,8,0.0,0.0,59,0.00,,,0.00,,2013-05-14 11:11:00,
2013-05-14 07:22:00,62.0,49.0,30.16,NNW,335,0.0,5.0,62,0.00,,,0.00,,2013-05-14 11:22:00,
2013-05-14 07:32:00,62.0,49.0,30.16,NNW,335,0.0,0.0,63,0.00,,,0.00,,2013-05-14 11:32:00,
2013-05-14 07:43:00,62.0,49.0,30.16,NNW,335,0.0,0.0,63,0.00,,,0.00,,2013-05-14 11:43:00,
2013-05-14 07:53:00,62.0,49.0,30.17,NNW,335,0.0,3.0,63,0.00,,,0.00,,2013-05-14 11:53:00,
2013-05-14 08:03:00,63.0,50.0,30.18,NNW,335,0.0,0.0,62,0.00,,,0.00,,2013-05-14 12:03:00,
2013-05-14 08:12:00,63.0,50.0,30.18,NNW,335,0.0,0.0,62,0.00,,,0.00,,2013-05-14 12:12:00,
2013-05-14 08:21:00,66.0,51.0,30.19,NNW,335,0.0,0.0,58,0.00,,,0.00,,2013-05-14 12:21:00,
2013-05-14 08:32:00,67.0,50.0,30.18,NE,41,0.0,6.0,55,0.00,,,0.00,,2013-05-14 12:32:00,
2013-05-14 08:42:00,67.0,50.0,30.18,NE,41,0.0,6.0,55,0.00,,,0.00,,2013-05-14 12:42:00,
2013-05-14 08:52:00,68.0,51.0,30.19,ENE,66,0.0,5.0,54,0.00,,,0.00,,2013-05-14 12:52:00,
2013-05-14 09:01:00,68.0,50.0,30.19,ENE,58,0.0,3.0,53,0.00,,,0.00,,2013-05-14 13:01:00,
2013-05-14 09:11:00,68.0,50.0,30.19,ENE,58,0.0,3.0,53,0.00,,,0.00,,2013-05-14 13:11:00,
2013-05-14 09:22:00,70.0,50.0,30.19,NNE,21,1.0,7.0,50,0.00,,,0.00,,2013-05-14 13:22:00,
2013-05-14 09:32:00,71.0,52.0,30.19,NE,41,0.0,8.0,51,0.00,,,0.00,,2013-05-14 13:32:00,
2013-05-14 09:42:00,71.0,52.0,30.19,NE,41,0.0,8.0,51,0.00,,,0.00,,2013-05-14 13:42:00,
2013-05-14 09:52:00,71.0,52.0,30.19,NE,41,0.0,8.0,51,0.00,,,0.00,,2013-05-14 13:52:00,
2013-05-14 10:01:00,73.0,50.0,30.19,NNE,21,1.0,9.0,45,0.00,,,0.00,,2013-05-14 14:01:00,
2013-05-14 10:11:00,73.0,50.0,30.19,NNE,21,1.0,9.0,45,0.00,,,0.00,,2013-05-14 14:11:00,
2013-05-14 10:22:00,74.0,47.0,30.19,NNE,32,1.0,8.0,39,0.00,,,0.00,,2013-05-14 14:22:00,
2013-05-14 10:32:00,75.0,47.0,30.19,NNE,30,3.0,9.0,37,0.00,,,0.00,,2013-05-14 14:32:00,
2013-05-14 10:42:00,75.0,47.0,30.19,NNE,30,3.0,9.0,37,0.00,,,0.00,,2013-05-14 14:42:00,
2013-05-14 10:53:00,76.0,46.0,30.19,North,0,2.0,9.0,34,0.00,,,0.00,,2013-05-14 14:53:00,
2013-05-14 11:01:00,76.0,44.0,30.19,NNE,26,1.0,8.0,32,0.00,,,0.00,,2013-05-14 15:01:00,
2013-05-14 11:12:00,76.0,44.0,30.19,NNE,26,1.0,8.0,32,0.00,,,0.00,,2013-05-14 15:12:00,
2013-05-14 11:22:00,78.0,46.0,30.20,NNE,12,1.0,12.0,32,0.00,,,0.00,,2013-05-14 15:22:00,
2013-05-14 11:33:00,79.0,43.0,30.20,NE,37,3.0,9.0,28,0.00,,,0.00,,2013-05-14 15:33:00,
2013-05-14 11:43:00,79.0,47.0,30.19,NNE,27,0.0,10.0,33,0.00,,,0.00,,2013-05-14 15:43:00,
2013-05-14 11:53:00,79.0,47.0,30.19,NNE,27,0.0,10.0,33,0.00,,,0.00,,2013-05-14 15:53:00,
2013-05-14 12:02:00,80.0,47.0,30.20,East,100,1.0,10.0,32,0.00,,,0.00,,2013-05-14 16:02:00,
2013-05-14 12:12:00,80.0,47.0,30.20,East,100,1.0,10.0,32,0.00,,,0.00,,2013-05-14 16:12:00,
2013-05-14 12:23:00,80.0,44.0,30.20,North,10,3.0,9.0,28,0.00,,,0.00,,2013-05-14 16:23:00,
2013-05-14 12:33:00,80.0,49.0,30.20,NE,41,1.0,8.0,34,0.00,,,0.00,,2013-05-14 16:33:00,
2013-05-14 12:44:00,80.0,49.0,30.20,NE,41,1.0,8.0,34,0.00,,,0.00,,2013-05-14 16:44:00,
2013-05-14 12:54:00,80.0,45.0,30.20,North,350,2.0,8.0,29,0.00,,,0.00,,2013-05-14 16:54:00,
2013-05-14 13:03:00,80.0,44.0,30.20,NNW,328,2.0,7.0,28,0.00,,,0.00,,2013-05-14 17:03:00,
2013-05-14 13:13:00,80.0,44.0,30.20,NNW,328,2.0,7.0,28,0.00,,,0.00,,2013-05-14 17:13:00,
2013-05-14 13:24:00,80.0,46.0,30.19,NNE,16,0.0,9.0,30,0.00,,,0.00,,2013-05-14 17:24:00,
2013-05-14 13:33:00,80.0,47.0,30.19,NNE,28,1.0,8.0,31,0.00,,,0.00,,2013-05-14 17:33:00,
2013-05-14 13:43:00,80.0,47.0,30.19,NNE,28,1.0,8.0,31,0.00,,,0.00,,2013-05-14 17:43:00,
2013-05-14 13:52:00,81.0,45.0,30.19,NNE,29,1.0,7.0,28,0.00,,,0.00,,2013-05-14 17:52:00,
2013-05-14 14:02:00,82.0,47.0,30.18,NNE,24,0.0,7.0,30,0.00,,,0.00,,2013-05-14 18:02:00,
2013-05-14 14:12:00,82.0,47.0,30.18,NNE,24,0.0,7.0,30,0.00,,,0.00,,2013-05-14 18:12:00,
2013-05-14 14:22:00,81.0,44.0,30.18,West,260,0.0,10.0,27,0.00,,,0.00,,2013-05-14 18:22:00,
2013-05-14 14:32:00,81.0,45.0,30.17,NNE,24,1.0,12.0,28,0.00,,,0.00,,2013-05-14 18:32:00,
2013-05-14 14:42:00,81.0,45.0,30.17,NNE,24,1.0,12.0,28,0.00,,,0.00,,2013-05-14 18:42:00,
2013-05-14 14:52:00,82.0,44.0,30.16,North,350,0.0,13.0,26,0.00,,,0.00,,2013-05-14 18:52:00,
2013-05-14 15:01:00,83.0,45.0,30.16,NW,309,1.0,9.0,26,0.00,,,0.00,,2013-05-14 19:01:00,
2013-05-14 15:12:00,83.0,45.0,30.16,NW,309,1.0,9.0,26,0.00,,,0.00,,2013-05-14 19:12:00,
2013-05-14 15:22:00,83.0,46.0,30.15,NNE,27,0.0,8.0,27,0.00,,,0.00,,2013-05-14 19:22:00,
2013-05-14 15:32:00,83.0,42.0,30.14,North,353,0.0,10.0,24,0.00,,,0.00,,2013-05-14 19:32:00,
2013-05-14 15:42:00,83.0,42.0,30.14,North,353,0.0,10.0,24,0.00,,,0.00,,2013-05-14 19:42:00,
2013-05-14 15:53:00,83.0,41.0,30.14,NNW,345,1.0,9.0,23,0.00,,,0.00,,2013-05-14 19:53:00,
2013-05-14 16:02:00,83.0,40.0,30.13,NNE,26,4.0,10.0,22,0.00,,,0.00,,2013-05-14 20:02:00,
2013-05-14 16:11:00,83.0,40.0,30.13,NNE,26,4.0,10.0,22,0.00,,,0.00,,2013-05-14 20:11:00,
2013-05-14 16:23:00,83.0,42.0,30.13,North,10,2.0,9.0,24,0.00,,,0.00,,2013-05-14 20:23:00,
2013-05-14 16:33:00,84.0,45.0,30.12,NNE,21,0.0,10.0,26,0.00,,,0.00,,2013-05-14 20:33:00,
2013-05-14 16:44:00,84.0,45.0,30.12,NNE,21,0.0,10.0,26,0.00,,,0.00,,2013-05-14 20:44:00,
2013-05-14 16:52:00,83.0,42.0,30.12,NNW,332,1.0,12.0,24,0.00,,,0.00,,2013-05-14 20:52:00,
2013-05-14 17:03:00,83.0,46.0,30.11,North,349,1.0,9.0,27,0.00,,,0.00,,2013-05-14 21:03:00,
2013-05-14 17:12:00,83.0,46.0,30.11,North,349,1.0,9.0,27,0.00,,,0.00,,2013-05-14 21:12:00,
2013-05-14 17:23:00,83.0,47.0,30.11,NW,320,4.0,14.0,29,0.00,,,0.00,,2013-05-14 21:23:00,
2013-05-14 17:33:00,82.0,47.0,30.11,WNW,300,5.0,13.0,29,0.00,,,0.00,,2013-05-14 21:33:00,
2013-05-14 17:43:00,82.0,47.0,30.11,WNW,300,5.0,13.0,29,0.00,,,0.00,,2013-05-14 21:43:00,
2013-05-14 17:53:00,82.0,48.0,30.11,West,273,6.0,12.0,31,0.00,,,0.00,,2013-05-14 21:53:00,
2013-05-14 18:03:00,81.0,48.0,30.11,WNW,285,1.0,13.0,32,0.00,,,0.00,,2013-05-14 22:03:00,
2013-05-14 18:13:00,81.0,48.0,30.11,WNW,285,1.0,13.0,32,0.00,,,0.00,,2013-05-14 22:13:00,
2013-05-14 18:24:00,81.0,48.0,30.11,NW,318,3.0,10.0,32,0.00,,,0.00,,2013-05-14 22:24:00,
2013-05-14 18:34:00,81.0,48.0,30.11,NW,310,3.0,12.0,32,0.00,,,0.00,,2013-05-14 22:34:00,
2013-05-14 18:45:00,81.0,48.0,30.11,NW,310,3.0,12.0,32,0.00,,,0.00,,2013-05-14 22:45:00,
2013-05-14 18:55:00,81.0,48.0,30.10,NW,304,2.0,10.0,32,0.00,,,0.00,,2013-05-14 22:55:00,
2013-05-14 19:03:00,81.0,48.0,30.10,NW,322,2.0,10.0,32,0.00,,,0.00,,2013-05-14 23:03:00,
2013-05-14 19:12:00,81.0,48.0,30.10,NW,322,2.0,10.0,32,0.00,,,0.00,,2013-05-14 23:12:00,
2013-05-14 19:22:00,80.0,50.0,30.10,NNW,338,5.0,12.0,35,0.00,,,0.00,,2013-05-14 23:22:00,
2013-05-14 19:32:00,79.0,50.0,30.10,NW,312,3.0,10.0,36,0.00,,,0.00,,2013-05-14 23:32:00,
2013-05-14 19:44:00,79.0,50.0,30.10,NW,312,3.0,10.0,36,0.00,,,0.00,,2013-05-14 23:44:00,
2013-05-14 19:53:00,78.0,51.0,30.10,NNW,330,1.0,9.0,39,0.00,,,0.00,,2013-05-14 23:53:00,
2013-05-14 20:02:00,78.0,52.0,30.11,NNW,344,0.0,8.0,40,0.00,,,0.00,,2013-05-15 00:02:00,
2013-05-14 20:11:00,78.0,52.0,30.11,NNW,344,0.0,8.0,40,0.00,,,0.00,,2013-05-15 00:11:00,
2013-05-14 20:21:00,77.0,52.0,30.11,WNW,299,1.0,12.0,42,0.00,,,0.00,,2013-05-15 00:21:00,
2013-05-14 20:32:00,76.0,52.0,30.12,NNW,342,0.0,8.0,43,0.00,,,0.00,,2013-05-15 00:32:00,
2013-05-14 20:42:00,76.0,52.0,30.12,NNW,342,0.0,8.0,43,0.00,,,0.00,,2013-05-15 00:42:00,
2013-05-14 20:52:00,76.0,54.0,30.12,NNW,340,0.0,9.0,46,0.00,,,0.00,,2013-05-15 00:52:00,
2013-05-14 21:01:00,75.0,54.0,30.13,NNW,329,1.0,6.0,48,0.00,,,0.00,,2013-05-15 01:01:00,
2013-05-14 21:11:00,75.0,54.0,30.13,NNW,329,1.0,6.0,48,0.00,,,0.00,,2013-05-15 01:11:00,
2013-05-14 21:22:00,75.0,55.0,30.13,West,281,0.0,9.0,50,0.00,,,0.00,,2013-05-15 01:22:00,
2013-05-14 21:32:00,74.0,55.0,30.14,NNW,330,2.0,7.0,52,0.00,,,0.00,,2013-05-15 01:32:00,
2013-05-14 21:42:00,74.0,55.0,30.14,NNW,330,2.0,7.0,52,0.00,,,0.00,,2013-05-15 01:42:00,
2013-05-14 21:52:00,74.0,56.0,30.14,NW,308,0.0,7.0,54,0.00,,,0.00,,2013-05-15 01:52:00,
2013-05-14 22:02:00,74.0,57.0,30.14,WNW,298,0.0,7.0,55,0.00,,,0.00,,2013-05-15 02:02:00,
2013-05-14 22:11:00,74.0,57.0,30.14,WNW,298,0.0,7.0,55,0.00,,,0.00,,2013-05-15 02:11:00,
2013-05-14 22:22:00,73.0,57.0,30.15,NNE,31,0.0,6.0,57,0.00,,,0.00,,2013-05-15 02:22:00,
2013-05-14 22:32:00,73.0,57.0,30.15,NNE,31,0.0,6.0,57,0.00,,,0.00,,2013-05-15 02:32:00,
2013-05-14 22:42:00,73.0,57.0,30.15,NNE,31,0.0,6.0,57,0.00,,,0.00,,2013-05-15 02:42:00,
2013-05-14 22:52:00,73.0,59.0,30.16,NW,308,1.0,5.0,61,0.00,,,0.00,,2013-05-15 02:52:00,
2013-05-14 23:01:00,73.0,59.0,30.16,ENE,58,0.0,7.0,61,0.00,,,0.00,,2013-05-15 03:01:00,
2013-05-14 23:13:00,73.0,59.0,30.16,ENE,58,0.0,7.0,61,0.00,,,0.00,,2013-05-15 03:13:00,
2013-05-14 23:22:00,72.0,60.0,30.17,ENE,58,0.0,0.0,65,0.00,,,0.00,,2013-05-15 03:22:00,
2013-05-14 23:33:00,72.0,59.0,30.17,ENE,58,0.0,0.0,64,0.00,,,0.00,,2013-05-15 03:33:00,
2013-05-14 23:44:00,72.0,59.0,30.17,ENE,58,0.0,0.0,63,0.00,,,0.00,,2013-05-15 03:44:00,
2013-05-14 23:54:00,72.0,59.0,30.17,ENE,58,0.0,0.0,63,0.00,,,0.00,,2013-05-15 03:54:00,